BREEZE-M DEB, 41319

Orbit data source: Space-Track

BREEZE-M DEB, 41319 is space debris in HEO originally from a launch on Thu, 17 May 2012 UTC launched from the Tyuratam Missile And Space Complex (TTMTR). Debris objects in space refer to the collection of defunct objects orbiting the Earth. Examples of debris include non-operational satellites, rocket bodies, and fragments generated from explosions, collisions, or faulty payload assembly.

Loading next visibility...
Identifier
41319, 2012-026F
Orbit
HEO
Country
Flag of CISCIS
Related business
Manufacturer
Khrunichev
Mission
Spacecraft
Bus & Motor
Unknown
Mass
Unknown
Launch date (UTC)
2012-05-17 (14 years ago)
Launch vehicle
Unknown
Launch site
Tyuratam Missile And Space Complex (TTMTR)
Object type
Payload
Rocket body
Debris
Shape & HBR
Unknown shape, 1.1 m
Radar Cross Section
RCS unknown

Expand to show TLE details & history
Last TLE update: 23 hours ago

TLE from 23 hours ago
0 BREEZE-M DEB
1 41319U 12026F   25354.03389351 -.00000042  00000-0  00000-0 0  9997
2 41319  10.0682 155.5109 4078400  12.2595 355.1853  1.76695248 64457
Epoch: 2025-12-20T00:48Z
TLE epoch observation values (Epoch: 2025-12-20T00:48:48.399Z)
Latitude
0.00002°
Longitude
54.37324°
Altitude
10,878.468 km
Speed
5.693 km/s
True Right ascension
10h 21m 45s
True Declination
0° 00' 00"
Sunlit
Object was in daylight at epoch
Visualization orbit readout
Latitude
Unknown
Longitude
Unknown
Altitude
Unknown
Speed
Unknown
Apparent Right ascension
Unknown
Apparent Declination
Unknown
Sunlit
N/A
Visualization observer readout
Local Sidereal Time
22:19:26
Azimuth
Unknown
Elevation
Unknown
Doppler factor
Unknown
Orbital elements
Apogee altitude
34,313.097 km
Perigee altitude
10,737.246 km
Semi-major axis
28,903.309 km
Eccentricity
0.40784
Inclination
10.0682°
RAAN
155.5109°
Arg. of periapsis
12.2595°
True anomaly
347.52057°
Mean anomaly
355.1853°
Eccentric anomaly
351.88791°
Mean motion
0.44169 °/min
Orbital period
815.04 mins
BSTAR
0
Loading maneuver chart data...
Computing Atmospheric mass density...
Loading historical data...
Loading historical data...
Loading historical data...
Loading historical data...
Loading historical data...
Loading historical data...
Loading historical data...

Documentation

Showing up to 5 results
|